Meteo Giornale » Osservazioni meteo Italia » Verona-Villafranca

ore: 14:20 - Osservazioni Meteo Verona-Villafranca
Lat. 45° 23' N Lon. 10° 52' E Alt. 67 metri s.l.m.

poco_nuvoloso Europe/Rome

25 °C

Poco Nuvoloso

Temp. 24 Ore

16 °C

25 °C

Nord

7.4 Km/h

Dew point 11 °C

Umidità 41 %

Visibilità  10 Km

Il sole sorge alle ore 05:33

Il sole tramonta alle ore 20:53

Data e Ora Cielo e Fenomeni T °C DP °C Um. % Pres. hPa Vis. km Vento km/h
Oggi h: 14:20 poco_nuvoloso Poco Nuvoloso 25 11 41 1018 10 N 7.4
Oggi h: 13:50 poco_nuvoloso Poco Nuvoloso 23 11 46 1019 10 NE 9.3
Oggi h: 13:20 sereno Sereno 24 11 43 1019 10 N 5.5
Oggi h: 12:50 sereno Sereno 24 11 43 1019 10 N 7.4
Oggi h: 12:20 sereno Sereno 23 10 43 1019 10 E/SE 11.1
Oggi h: 11:50 sereno Sereno 23 10 43 1019 10 E/SE 9.3
Oggi h: 11:20 poco_nuvoloso Poco Nuvoloso 22 9 43 1019 10 E 9.3
Oggi h: 10:50 nuvoloso Nuvoloso 21 8 43 1020 10 E 7.4
Oggi h: 10:20 molto_nuvoloso Molto Nuvoloso 21 7 40 1020 10 E/NE 9.3
Oggi h: 09:50 molto_nuvoloso Molto Nuvoloso 20 8 45 1020 10 E/NE 7.4
Oggi h: 09:20 molto_nuvoloso Molto Nuvoloso 20 7 42 1020 10 E/NE 11.1
Oggi h: 08:50 molto_nuvoloso Molto Nuvoloso 20 8 45 1019 10 E/NE 11.1
Oggi h: 08:20 molto_nuvoloso Molto Nuvoloso 19 11 59 1019 10 N 5.5
Oggi h: 07:50 molto_nuvoloso Molto Nuvoloso 18 10 59 1019 10 N 7.4
Oggi h: 07:20 nuvoloso Nuvoloso 17 11 67 1019 10 N 7.4
Oggi h: 06:50 nuvoloso Nuvoloso 16 11 72 1019 10 NO 9.3
Oggi h: 06:20 nuvoloso Nuvoloso 16 10 67 1019 10 N 7.4
Oggi h: 05:50 nuvoloso Nuvoloso 16 10 67 1018 10 N 3.7
Oggi h: 05:20 nuvoloso Nuvoloso 16 10 67 1019 10 N 5.5
Oggi h: 04:50 nuvoloso Nuvoloso 16 10 67 1019 10 N 5.5
Oggi h: 04:20 poco_nuvoloso Poco Nuvoloso 16 9 63 1019 10 N 7.4
Oggi h: 03:50 poco_nuvoloso Poco Nuvoloso 16 8 58 1019 10 N/NE 7.4
Oggi h: 03:20 poco_nuvoloso Poco Nuvoloso 17 8 55 1019 10 N 5.5
Oggi h: 02:50 poco_nuvoloso Poco Nuvoloso 18 8 51 1019 10 NE 7.4
Oggi h: 02:20 poco_nuvoloso Poco Nuvoloso 18 8 51 1019 10 NE 7.4
Oggi h: 01:50 poco_nuvoloso Poco Nuvoloso 18 8 51 1019 10 E/NE 9.3
Oggi h: 01:20 nuvoloso Nuvoloso 18 9 55 1019 10 E/NE 11.1
Oggi h: 00:50 nuvoloso Nuvoloso 19 9 52 1019 10 E/NE 11.1
Oggi h: 00:20 nuvoloso Nuvoloso 19 9 52 1019 10 E/NE 13
Ieri h: 23:50 poco_nuvoloso Poco Nuvoloso 19 9 52 1019 10 E/NE 11.1
Ieri h: 23:20 poco_nuvoloso Poco Nuvoloso 19 10 55 1018 10 NE 9.3
Ieri h: 22:50 poco_nuvoloso Poco Nuvoloso 19 10 55 1018 10 E/NE 9.3
Ieri h: 22:20 poco_nuvoloso Poco Nuvoloso 19 10 55 1018 10 NE 11.1
Ieri h: 21:20 poco_nuvoloso Poco Nuvoloso 20 11 56 1017 10 E 9.3
Ieri h: 20:50 poco_nuvoloso Poco Nuvoloso 21 12 56 1016 10 E/SE 14.8
Ieri h: 20:20 nuvoloso Nuvoloso 21 13 60 1016 10 E 9.3
Ieri h: 19:50 nuvoloso Nuvoloso 22 13 56 1016 10 E/SE 9.3
Ieri h: 19:20 poco_nuvoloso Poco Nuvoloso 24 12 47 1016 10 E/SE 9.3
Ieri h: 18:50 poco_nuvoloso Poco Nuvoloso 24 13 50 1016 10 SE 9.3
Ieri h: 18:20 nuvoloso Nuvoloso 24 12 47 1016 10 E/SE 7.4
Ieri h: 17:50 nuvoloso Nuvoloso 24 12 47 1016 10 E/SE 13
Ieri h: 17:20 nuvoloso Nuvoloso 25 13 47 1016 10 E 9.3
Ieri h: 16:50 nuvoloso Nuvoloso 25 13 47 1016 10 E 11.1
Ieri h: 16:20 nuvoloso Nuvoloso 24 13 50 1016 10 E 7.4
Ieri h: 15:50 nuvoloso Nuvoloso 24 13 50 1016 10 E 9.3
Ieri h: 15:20 nuvoloso Nuvoloso 24 13 50 1017 10 SE 9.3
Ieri h: 14:50 nuvoloso Nuvoloso 23 13 53 1017 10 N 9.3